EW4624 Weather Reports


time (UTC)temp
F
wind
direction
speed
knots
gust
knots
rain 1hr
in
rain 24hr
in
rain mn
in
humidity
%
barometer
mb
20260906023017 84 288 0.0 2.6 0.00 0.00 0.00 83 1012.5
20260906021517 84 314 0.9 3.5 0.00 0.00 0.00 83 1012.2
20260906020015 84 281 0.0 3.5 0.00 0.00 0.00 83 1012.3
20260906014517 84 338 0.9 4.3 0.00 0.00 0.00 83 1012.2
20260906013019 84 347 0.0 2.6 0.00 0.00 0.00 82 1012.1
20260906011513 84 306 0.9 4.3 0.00 0.00 0.00 81 1012.0
20260906010013 84 311 0.9 4.3 0.00 0.00 0.00 82 1012.0
20260906004513 84 245 0.9 3.5 0.00 0.00 0.00 82 1012.1
20260906003012 84 216 0.9 6.1 0.00 0.00 0.00 82 1011.8
20260906001517 84 281 0.9 3.5 0.00 0.00 0.00 82 1011.9
20260906000032 85 336 0.0 3.5 0.00 0.00 0.00 81 1012.0
20260905234509 85 264 0.9 7.8 0.00 0.00 0.00 79 1012.0
20260905233009 85 235 0.0 4.3 0.00 0.00 0.00 79 1011.8
20260905231508 86 234 0.9 6.1 0.00 0.00 0.00 78 1011.9
20260905230007 88 289 1.7 4.3 0.00 0.00 0.00 74 1012.0
20260905224507 88 214 2.6 7.0 0.00 0.00 0.00 74 1012.0
20260905223008 89 252 0.9 8.7 0.00 0.00 0.00 74 1011.9
20260905221504 88 220 2.6 6.1 0.00 0.00 0.00 75 1012.1
20260905220003 88 200 0.9 7.0 0.00 0.00 0.00 76 1012.1
20260905214501 88 309 1.7 6.1 0.00 0.00 0.00 75 1012.2
20260905213001 88 284 1.7 7.0 0.00 0.00 0.00 74 1012.4
20260905211601 88 248 1.7 6.1 0.00 0.00 0.00 76 1012.4
20260905210118 88 179 1.7 6.1 0.00 0.00 0.00 75 1012.4
20260905204602 88 345 2.6 7.8 0.00 0.00 0.00 75 1012.3
20260905203057 88 209 2.6 7.0 0.00 0.00 0.00 76 1012.4
20260905201556 88 290 1.7 8.7 0.00 0.00 0.00 76 1012.4
20260905200055 88 276 2.6 7.0 0.00 0.00 0.00 75 1012.6
20260905194607 88 257 4.3 10.4 0.00 0.00 0.00 76 1012.9
20260905193050 87 203 1.7 6.1 0.00 0.00 0.00 77 1013.2
20260905191556 88 281 2.6 7.0 0.00 0.00 0.00 76 1013.5
20260905190050 88 304 2.6 7.8 0.00 0.00 0.00 76 1013.4
20260905184609 88 296 2.6 7.0 0.00 0.00 0.00 77 1013.6
20260905183052 88 226 1.7 8.7 0.00 0.00 0.00 77 1013.9
20260905181556 88 234 0.9 8.7 0.00 0.00 0.00 75 1014.1
20260905180050 87 304 3.5 7.0 0.00 0.00 0.00 78 1014.1
20260905174544 87 206 2.6 7.0 0.00 0.03 0.00 78 1014.3
20260905173043 87 208 2.6 7.0 0.00 0.03 0.00 78 1014.3
20260905171544 87 198 2.6 7.0 0.00 0.03 0.00 77 1014.3
20260905170041 87 260 2.6 7.0 0.00 0.03 0.00 77 1014.5
20260905164539 86 190 1.7 7.8 0.00 0.05 0.00 80 1014.6
20260905163038 86 229 2.6 7.8 0.00 0.05 0.00 82 1014.6
20260905161538 87 226 3.5 6.1 0.00 0.05 0.00 80 1014.8
20260905160036 86 281 0.9 5.2 0.00 0.05 0.00 80 1014.8
20260905154549 86 316 0.9 5.2 0.00 0.05 0.00 81 1014.5
20260905153032 86 302 0.9 4.3 0.00 0.05 0.00 79 1014.6
20260905151531 86 248 2.6 6.1 0.00 0.05 0.00 80 1014.4
20260905150027 85 295 0.0 2.6 0.00 0.05 0.00 81 1014.5
20260905144533 85 352 0.0 2.6 0.00 0.05 0.00 82 1014.6
20260905143022 84 295 0.0 2.6 0.00 0.05 0.00 83 1014.7
20260905141526 84 23 0.9 4.3 0.00 0.05 0.00 83 1014.6
20260905140017 83 355 0.0 2.6 0.00 0.05 0.00 85 1014.5
20260905134517 83 357 0.9 2.6 0.00 0.05 0.00 86 1014.4
20260905133022 82 349 0.0 1.7 0.00 0.05 0.00 88 1014.4
20260905131512 82 19 0.0 0.0 0.00 0.05 0.00 89 1014.3
20260905130014 81 16 0.0 0.9 0.00 0.05 0.00 90 1014.3
20260905124510 80 23 0.0 0.9 0.00 0.05 0.00 92 1014.1
20260905123008 79 53 0.0 0.9 0.00 0.05 0.00 92 1014.1
20260905121507 78 37 0.0 0.0 0.00 0.05 0.00 92 1014.0
20260905120005 78 37 0.0 0.0 0.00 0.05 0.00 92 1013.9
20260905114505 78 37 0.0 0.0 0.00 0.05 0.00 92 1013.7
20260905113004 78 37 0.0 0.0 0.00 0.05 0.00 92 1013.7
20260905111502 79 37 0.0 0.0 0.00 0.05 0.00 92 1013.6
20260905110100 79 20 0.0 0.9 0.00 0.05 0.00 92 1013.5
20260905104605 80 32 0.0 0.9 0.00 0.05 0.00 91 1013.5
20260905103056 80 25 0.0 0.9 0.00 0.05 0.00 89 1013.4
20260905101600 82 290 0.0 0.9 0.00 0.05 0.00 87 1013.3
20260905100052 82 264 0.0 0.9 0.00 0.05 0.00 87 1013.2
20260905094550 82 264 0.0 0.9 0.00 0.05 0.00 86 1013.2
20260905093050 82 226 0.0 1.7 0.00 0.05 0.00 86 1013.2
20260905091550 82 220 0.0 0.9 0.00 0.05 0.00 86 1013.3
20260905090047 82 317 0.0 0.9 0.00 0.05 0.00 86 1013.2
20260905084550 82 244 0.0 0.0 0.00 0.05 0.00 86 1013.3
20260905083046 83 201 0.9 3.5 0.00 0.05 0.00 85 1013.1
20260905081545 83 215 0.0 1.7 0.00 0.05 0.00 85 1013.0
20260905080050 82 233 0.9 2.6 0.00 0.05 0.00 85 1013.0
20260905074545 82 205 0.0 3.5 0.00 0.05 0.00 86 1013.1
20260905073046 82 223 0.0 1.7 0.00 0.05 0.00 87 1013.2
20260905071540 82 217 0.0 0.9 0.00 0.05 0.00 87 1013.0
20260905070039 82 219 0.9 2.6 0.00 0.05 0.00 86 1013.0
20260905064538 82 221 0.9 2.6 0.00 0.05 0.00 86 1012.9
20260905063037 82 202 1.7 4.3 0.00 0.05 0.00 86 1012.9
20260905061535 82 224 0.0 3.5 0.00 0.05 0.00 86 1013.1
20260905060034 82 210 2.6 4.3 0.00 0.05 0.00 85 1013.2
20260905054536 82 200 2.6 5.2 0.00 0.05 0.00 84 1013.1
20260905053031 82 240 0.9 4.3 0.00 0.05 0.00 84 1013.3
20260905051540 82 228 0.0 2.6 0.00 0.05 0.00 84 1013.5
20260905050026 82 231 0.9 4.3 0.00 0.05 0.00 84 1013.6
20260905044528 82 203 0.9 3.5 0.00 0.11 0.05 84 1013.6
20260905043022 82 186 1.7 6.1 0.00 0.11 0.05 85 1013.9
20260905041524 82 90 0.0 0.9 0.00 0.11 0.05 88 1014.0
20260905040021 82 186 0.0 0.0 0.00 0.11 0.05 87 1014.1
20260905034521 82 181 0.0 0.9 0.00 0.15 0.05 87 1014.1
20260905033048 82 212 0.0 3.5 0.00 0.15 0.05 87 1014.2
20260905031520 82 173 0.0 1.7 0.00 0.15 0.05 87 1014.4
20260905030019 82 189 0.0 0.0 0.00 0.15 0.05 88 1014.3
20260905024520 82 186 0.0 1.7 0.00 0.15 0.05 87 1014.6